Weather History for KCGS - November, 2012

Change the Weather History Date:

Wednesday, November 28, 2012

  Actual Average Record
Temperature  
Mean Temperature 40 °F -  
Max Temperature 49 °F 55 °F 71 °F (1973)
Min Temperature 31 °F 38 °F 14 °F (1951)
Degree Days  
Heating Degree Days 25    
Moisture  
Dew Point 28 °F    
Average Humidity 62    
Maximum Humidity 100    
Minimum Humidity 36    
Precipitation  
Precipitation 0.00 in - - ()
Sea Level Pressure  
Sea Level Pressure 30.30 in    
Wind  
Wind Speed 4 mph (NW)    
Max Wind Speed 14 mph    
Max Gust Speed 21 mph    
Visibility 10 miles    
Events      
Averages and records for this station are not official NWS values.
T = Trace of Precipitation, MM = Missing Value Source: NWS Daily Summary

Daily Weather History Graph

Daily Weather History Graph

Search for Another Location

Airport or City:

Trip Planner

Search our weather history database for the weather conditions in past years. The results will help you decide how hot, cold, wet, or windy it might be!

Date:

Astronomy

Nov. 28, 2012 Rise Set
Actual Time 7:04 AM EST 4:46 PM EST
Civil Twilight 6:35 AM EST 5:15 PM EST
Nautical Twilight 6:02 AM EST 5:48 PM EST
Astronomical Twilight 5:30 AM EST 6:20 PM EST
Moon 4:59 PM EST (11/28) 7:00 AM EST (11/28)
Length of Visible Light 10h 40m
Length of Day
9h 41m
Full, 100% of the Moon is Illuminated
Nov 28
Full
Dec 6
Last Quarter
Dec 13
New
Dec 20
First Quarter
Dec 28
Full

Hourly Weather History & Observations

Time (EST) Temp. Windchill Dew Point Humidity Pressure Visibility Wind Dir Wind Speed Gust Speed Precip Events Conditions
12:05 AM 34.9 °F - 34.9 °F 100% 30.26 in 4.0 mi Calm Calm - N/A   Overcast
12:25 AM 35.2 °F - 35.2 °F 100% 30.25 in 4.0 mi Calm Calm - N/A   Overcast
12:45 AM 36.7 °F 34.1 °F 36.7 °F 100% 30.26 in 7.0 mi North 3.5 mph - N/A   Overcast
1:05 AM 38.3 °F 34.8 °F 35.8 °F 91% 30.25 in 10.0 mi NNW 4.6 mph - N/A   Overcast
1:30 AM 39.2 °F 35.9 °F 35.6 °F 87% 30.25 in 10.0 mi North 4.6 mph - N/A   Overcast
1:50 AM 39.4 °F 36.1 °F 35.6 °F 86% 30.25 in 10.0 mi NW 4.6 mph - N/A   Overcast
2:10 AM 39.6 °F 36.3 °F 35.6 °F 86% 30.27 in 10.0 mi NW 4.6 mph - N/A   Overcast
2:55 AM 39.7 °F 37.6 °F 35.4 °F 85% 30.28 in 10.0 mi North 3.5 mph - N/A   Overcast
3:15 AM 39.6 °F 35.4 °F 34.9 °F 83% 30.28 in 10.0 mi NW 5.8 mph - N/A   Overcast
3:35 AM 40.1 °F 38.0 °F 32.4 °F 74% 30.28 in 10.0 mi NNW 3.5 mph - N/A   Overcast
3:55 AM 40.3 °F 37.1 °F 31.1 °F 70% 30.27 in 10.0 mi North 4.6 mph - N/A   Overcast
4:20 AM 40.5 °F 38.4 °F 30.2 °F 67% 30.27 in 10.0 mi North 3.5 mph - N/A   Overcast
4:40 AM 40.1 °F 38.0 °F 31.3 °F 71% 30.26 in 10.0 mi North 3.5 mph - N/A   Overcast
5:00 AM 40.1 °F 36.9 °F 32.0 °F 73% 30.26 in 10.0 mi NNW 4.6 mph - N/A   Overcast
5:25 AM 40.1 °F 35.3 °F 32.0 °F 73% 30.28 in 10.0 mi NNW 6.9 mph - N/A   Overcast
6:05 AM 39.6 °F 35.4 °F 30.0 °F 69% 30.29 in 10.0 mi NW 5.8 mph - N/A   Overcast
6:25 AM 39.4 °F 33.8 °F 28.0 °F 64% 30.29 in 10.0 mi NW 8.1 mph - N/A   Mostly Cloudy
6:50 AM 38.7 °F 35.2 °F 28.0 °F 66% 30.30 in 10.0 mi NNW 4.6 mph - N/A   Overcast
7:30 AM 38.3 °F 35.9 °F 27.5 °F 65% 30.31 in 10.0 mi NNW 3.5 mph - N/A   Overcast
7:50 AM 38.5 °F 35.0 °F 27.3 °F 64% 30.31 in 10.0 mi North 4.6 mph - N/A   Overcast
8:15 AM 39.4 °F 36.1 °F 27.0 °F 61% 30.31 in 10.0 mi NNW 4.6 mph - N/A   Mostly Cloudy
8:35 AM 39.6 °F 35.4 °F 27.1 °F 61% 30.32 in 10.0 mi North 5.8 mph - N/A   Scattered Clouds
8:55 AM 40.6 °F 37.5 °F 27.3 °F 59% 30.32 in 10.0 mi North 4.6 mph - N/A   Scattered Clouds
9:15 AM 41.0 °F 37.1 °F 26.8 °F 57% 30.33 in 10.0 mi North 5.8 mph - N/A   Overcast
9:40 AM 41.5 °F 37.8 °F 27.7 °F 58% 30.33 in 10.0 mi North 5.8 mph - N/A   Overcast
10:00 AM 42.8 °F 40.1 °F 27.0 °F 54% 30.32 in 10.0 mi North 4.6 mph - N/A   Scattered Clouds
10:20 AM 43.2 °F 40.5 °F 27.1 °F 53% 30.32 in 10.0 mi North 4.6 mph - N/A   Clear
10:40 AM 43.9 °F 42.3 °F 27.5 °F 53% 30.31 in 10.0 mi North 3.5 mph - N/A   Clear
11:05 AM 45.5 °F 41.8 °F 27.7 °F 50% 30.31 in 10.0 mi NW 6.9 mph 18.4 mph N/A   Clear
11:25 AM 45.5 °F 41.8 °F 28.0 °F 51% 30.30 in 10.0 mi West 6.9 mph - N/A   Scattered Clouds
11:45 AM 45.9 °F 40.4 °F 27.9 °F 49% 30.29 in 10.0 mi West 11.5 mph 16.1 mph N/A   Scattered Clouds
12:05 PM 46.6 °F - 27.9 °F 48% 30.29 in 10.0 mi West 9.2 mph - N/A   Scattered Clouds
12:25 PM 47.1 °F - 27.7 °F 47% 30.28 in 10.0 mi WNW 9.2 mph - N/A   Scattered Clouds
12:50 PM 47.3 °F - 28.6 °F 48% 30.28 in 10.0 mi WNW 6.9 mph - N/A   Scattered Clouds
1:10 PM 48.0 °F - 28.4 °F 47% 30.27 in 10.0 mi North 11.5 mph 19.6 mph N/A   Scattered Clouds
1:30 PM 48.6 °F - 28.6 °F 46% 30.27 in 10.0 mi WNW 9.2 mph - N/A   Scattered Clouds
1:50 PM 47.3 °F - 27.9 °F 47% 30.26 in 10.0 mi West 5.8 mph - N/A   Scattered Clouds
2:15 PM 48.9 °F - 26.8 °F 42% 30.26 in 10.0 mi WNW 11.5 mph 16.1 mph N/A   Clear
2:35 PM 49.1 °F - 25.3 °F 40% 30.26 in 10.0 mi West 6.9 mph 16.1 mph N/A   Clear
2:55 PM 49.5 °F - 24.1 °F 37% 30.25 in 10.0 mi WNW 12.7 mph 18.4 mph N/A   Clear
3:15 PM 49.1 °F - 22.8 °F 36% 30.26 in 10.0 mi WNW 13.8 mph 20.7 mph N/A   Clear
3:40 PM 48.9 °F - 23.0 °F 36% 30.26 in 10.0 mi West 5.8 mph - N/A   Clear
4:00 PM 48.4 °F - 22.8 °F 37% 30.26 in 10.0 mi West 11.5 mph 16.1 mph N/A   Clear
4:20 PM 47.3 °F - 22.5 °F 38% 30.27 in 10.0 mi West 8.1 mph - N/A   Clear
4:40 PM 46.8 °F - 22.5 °F 38% 30.28 in 10.0 mi WNW 8.1 mph - N/A   Clear
5:05 PM 46.2 °F 42.7 °F 22.5 °F 39% 30.28 in 10.0 mi West 6.9 mph - N/A   Clear
5:25 PM 45.7 °F - 22.6 °F 40% 30.29 in 10.0 mi Calm Calm - N/A   Clear
5:45 PM 45.0 °F - 23.0 °F 42% 30.30 in 10.0 mi Calm Calm - N/A   Clear
6:05 PM 44.8 °F - 23.0 °F 42% 30.30 in 10.0 mi Calm Calm - N/A   Clear
6:50 PM 43.5 °F - 23.5 °F 45% 30.32 in 10.0 mi Calm Calm - N/A   Clear
7:10 PM 39.4 °F 37.2 °F 25.2 °F 57% 30.33 in 10.0 mi West 3.5 mph - N/A   Clear
7:30 PM 42.4 °F - 24.6 °F 49% 30.33 in 10.0 mi Calm Calm - N/A   Clear
7:50 PM 39.4 °F - 26.1 °F 59% 30.34 in 10.0 mi Calm Calm - N/A   Clear
8:15 PM 41.5 °F - 25.3 °F 53% 30.34 in 10.0 mi Calm Calm - N/A   Clear
8:35 PM 36.0 °F 33.3 °F 27.3 °F 71% 30.35 in 10.0 mi West 3.5 mph - N/A   Clear
8:55 PM 36.9 °F - 26.6 °F 66% 30.36 in 10.0 mi Calm Calm - N/A   Clear
9:20 PM 33.3 °F - 27.7 °F 80% 30.36 in 10.0 mi Calm Calm - N/A   Clear
9:40 PM 32.4 °F - 28.6 °F 86% 30.37 in 10.0 mi Calm Calm - N/A   Clear
10:00 PM 31.1 °F - 27.0 °F 85% 30.37 in 10.0 mi Calm Calm - N/A   Clear
10:45 PM 31.3 °F - 27.0 °F 84% 30.37 in 10.0 mi Calm Calm - N/A   Clear
11:05 PM 31.5 °F - 27.3 °F 85% 30.38 in 10.0 mi Calm Calm - N/A   Clear
11:25 PM 31.8 °F - 27.1 °F 83% 30.38 in 10.0 mi Calm Calm - N/A   Clear
11:50 PM 31.3 °F - 27.3 °F 85% 30.38 in 10.0 mi Calm Calm - N/A   Clear